Temperature
30 30 30 30 30 29 29 29 29 29 29 29 28 27 26 25 24 23 22 21 21 20 19 18 18 18 18 17 17 17 17 17 16 16 16 16 15 15 15 15 15 14 14 14
29 29 29 29 29 29 29 29 29 29 29 28 27 26 25 24 23 22 22 21 20 19 18 18 18 17 17 17 17 17 16 16 16 15 15 15 15 15 15 14 14 14 14 14
28 29 28 28 29 29 29 29 29 28 28 27 26 25 24 23 22 22 21 20 19 19 18 18 18 17 17 17 17 16 16 16 15 15 15 15 15 15 14 14 14 14 14 13
28 27 26 29 29 29 28 28 28 28 27 26 25 24 23 22 22 21 21 20 19 19 18 18 18 17 17 17 16 16 16 15 15 15 15 14 14 14 14 14 14 13 13 13
27 27 28 28 28 28 27 27 27 27 26 25 24 24 23 22 21 21 20 19 19 18 18 18 17 17 17 17 16 16 15 15 15 14 14 14 14 14 13 13 13 13 13 13
26 26 26 27 27 26 27 26 26 25 25 24 24 25 24 21 20 20 19 19 18 18 17 17 17 17 16 16 16 15 15 15 15 14 14 14 13 13 13 13 13 13 13 13
26 26 27 26 25 26 25 25 24 24 24 23 23 23 21 20 19 19 18 18 17 17 17 16 16 16 16 16 16 15 15 15 14 14 14 13 13 13 13 13 12 12 12 12
25 25 26 25 25 25 24 22 22 22 22 22 21 21 20 19 19 18 18 17 17 17 16 16 16 16 15 15 15 15 14 14 14 14 13 13 13 13 12 12 12 12 12 12
25 25 23 23 23 22 22 22 21 21 21 20 20 20 19 19 18 18 17 17 17 16 16 16 15 15 15 15 15 14 14 14 14 13 13 13 13 12 12 12 12 12 12 12
23 24 23 22 21 21 21 21 20 20 20 20 19 19 19 18 18 17 17 16 16 16 16 16 15 15 15 15 14 14 14 14 13 13 13 13 12 12 12 12 12 12 12 12
22 22 22 21 20 20 20 19 19 19 19 19 19 19 18 18 17 17 16 16 16 15 15 15 15 15 14 14 14 14 14 13 13 13 13 12 12 12 12 12 12 12 11 11
22 21 21 21 20 19 19 19 18 18 18 18 18 18 17 17 16 16 16 15 15 15 14 15 15 14 14 14 14 14 13 13 13 13 12 12 12 12 12 12 12 11 11 11
20 19 19 19 18 18 18 18 18 18 18 17 17 17 17 16 16 15 15 15 15 14 14 14 14 14 14 13 13 13 13 13 13 12 12 12 12 12 12 12 11 11 11 11
17 17 18 18 18 18 18 17 17 17 17 17 16 16 16 16 15 15 15 14 14 14 14 13 13 13 13 13 13 13 13 13 12 12 12 12 12 12 12 12 11 11 11 11
17 17 17 17 17 17 17 17 17 17 16 16 16 16 15 15 15 15 14 14 14 14 13 13 13 13 13 13 13 13 12 12 12 12 12 12 12 12 12 11 11 11 11 11
16 16 17 17 17 16 16 16 16 16 16 15 15 15 15 15 15 14 14 14 14 14 13 13 13 13 13 12 12 12 12 12 12 12 12 12 11 11 11 11 11 11 11 10
16 16 16 16 16 16 16 16 16 16 15 15 15 15 14 14 14 14 14 14 13 13 13 13 13 12 12 12 12 12 12 12 12 12 12 12 11 11 11 11 11 11 10 10
15 15 15 15 15 15 15 15 15 15 15 14 14 14 14 14 14 14 14 13 13 13 13 12 12 12 12 12 12 12 12 12 12 12 11 11 11 11 11 11 10 10 10 10
14 14 15 14 14 14 15 15 14 14 14 14 14 14 14 14 14 13 13 13 13 12 12 12 12 12 12 12 12 12 12 12 11 11 11 11 11 11 11 10 10 10 10 10
14 14 14 14 14 14 14 14 14 14 13 13 13 13 13 13 13 13 13 13 13 13 12 12 12 12 12 12 12 12 12 12 11 11 11 11 11 11 11 10 10 10 10 10
13 13 13 13 13 13 13 13 13 13 13 13 13 13 13 13 13 13 12 13 13 12 12 12 12 12 12 12 11 11 12 11 11 11 11 11 11 10 10 10 10 10 10 9
13 13 13 13 13 13 13 13 13 13 13 12 12 13 13 13 13 12 12 12 12 12 12 12 12 12 12 11 11 11 11 11 11 11 11 11 11 10 10 10 10 10 9 9
12 12 12 12 12 12 12 13 13 13 12 12 12 12 12 12 12 13 13 12 12 12 12 12 12 12 12 11 11 11 11 11 11 11 11 11 10 10 10 10 10 9 9 9
12 12 12 12 12 12 12 13 13 12 12 12 12 12 12 12 12 12 13 12 12 12 12 12 12 12 11 11 11 11 11 11 11 11 11 10 10 10 10 10 9 9 9 9
12 12 12 12 12 12 12 12 12 12 12 12 12 12 12 12 12 12 12 12 12 12 12 12 11 11 11 11 11 11 11 11 10 10 10 10 10 10 10 9 9 9 8 8
11 12 12 12 12 12 12 12 13 13 13 13 12 12 12 12 12 12 12 12 12 12 11 11 11 11 11 11 11 10 10 10 10 10 10 10 10 9 9 9 8 8 8 8
12 12 12 12 12 12 12 12 12 12 12 12 12 12 12 12 12 12 12 12 12 11 11 11 11 11 11 10 10 10 10 10 9 9 9 9 9 9 8 8 8 8 7 7
Wind_Speed
10 8 8 9 9 9 10 10 10 9 8 4 3 3 4 5 5 5 5 5 4 4 4 3 3 3 3 3 2 2 2 2 2 2 1 1 1 1 1 1 1 1 2 2
11 10 10 12 11 11 11 10 10 10 7 1 1 2 3 4 5 6 5 5 4 4 4 3 3 2 2 3 2 2 2 1 1 1 1 1 1 1 1 1 1 1 2 2
12 10 10 13 11 10 10 9 9 9 4 1 2 2 3 4 6 6 5 5 4 4 4 3 3 3 3 2 3 2 2 1 1 1 1 0 1 1 1 1 1 1 2 2
10 9 13 6 1 5 7 7 6 5 2 2 2 3 3 4 5 5 4 4 4 3 3 2 2 3 2 3 3 2 2 1 1 1 0 0 0 1 1 1 2 2 2 2
9 12 12 6 3 3 5 6 3 3 3 3 3 4 3 3 3 3 4 4 3 3 2 2 2 3 3 2 2 2 2 1 0 0 0 0 0 1 1 1 1 1 1 1
10 12 11 3 1 1 5 6 1 2 2 3 4 5 2 2 2 2 3 3 3 3 2 2 3 3 3 3 2 2 1 1 1 1 1 1 1 1 1 1 2 2 1 2
12 12 8 1 0 3 7 2 2 0 1 3 2 2 2 2 2 2 2 3 3 3 3 2 2 3 3 3 2 2 2 1 1 1 1 1 0 1 1 1 1 2 2 2
10 12 7 3 1 2 3 3 1 1 1 1 1 2 3 3 2 2 2 3 3 3 2 2 3 3 3 3 2 2 2 2 1 1 1 0 0 1 1 1 1 1 1 2
5 3 3 2 1 2 2 1 1 1 1 1 1 2 2 2 1 2 2 3 3 2 2 2 2 3 3 2 2 2 2 2 2 1 1 1 1 1 1 2 2 2 2 2
4 3 1 0 1 2 2 2 1 1 1 0 1 1 1 1 1 2 2 3 3 2 2 2 2 3 3 3 3 3 3 2 2 2 1 1 1 1 2 2 2 2 3 3
6 4 3 2 0 1 1 1 1 1 1 0 0 1 1 1 1 2 2 3 3 3 2 2 2 3 3 3 3 3 3 2 2 2 1 1 1 1 1 2 2 3 3 3
5 2 4 3 1 1 0 1 1 1 1 1 0 1 1 1 1 2 2 2 3 3 2 2 2 2 3 4 4 4 3 2 2 1 1 1 1 1 2 1 1 0 3 4
5 5 4 3 2 2 2 2 2 2 1 1 1 1 1 1 1 1 2 2 3 2 2 2 2 2 2 3 3 3 2 2 1 1 1 2 2 1 1 1 1 3 3 3
4 4 5 4 4 3 2 2 2 2 2 1 1 2 1 1 1 1 1 2 3 2 2 2 2 2 2 2 3 3 2 2 2 2 2 2 2 2 2 2 2 2 2 3
5 5 5 5 4 4 3 3 3 3 2 2 1 2 2 2 1 1 1 1 2 2 2 2 2 2 2 3 3 3 2 2 1 1 2 2 3 3 2 3 3 3 2 0
4 3 3 3 4 4 4 4 4 3 3 2 2 2 1 1 1 1 1 1 2 2 2 2 2 2 2 3 3 3 2 3 2 2 2 2 2 3 2 2 3 3 3 3
4 3 3 3 3 3 3 3 3 3 2 2 2 1 1 1 1 1 1 1 1 1 2 2 2 2 3 3 3 3 2 3 4 3 2 2 2 3 3 3 3 3 3 2
4 4 4 3 3 3 3 3 3 2 2 2 2 2 2 3 3 2 2 2 2 2 2 2 2 2 3 3 3 3 2 2 3 2 2 2 2 3 3 3 4 4 3 1
3 3 3 3 3 3 3 2 2 3 3 3 3 3 3 4 3 2 2 2 3 3 2 2 3 4 4 3 3 3 3 3 2 2 2 2 3 3 3 3 4 4 4 3
1 2 2 2 2 3 3 3 3 2 2 3 3 3 3 3 3 3 3 3 3 2 2 2 3 4 3 3 3 3 3 3 3 3 3 3 2 3 3 3 4 4 4 3
1 1 1 1 2 2 2 3 3 3 3 3 3 4 3 3 3 3 3 3 2 2 3 4 4 3 3 2 4 4 4 4 4 4 3 3 3 3 3 3 4 4 3 3
1 0 1 1 1 2 2 2 3 3 3 3 3 3 3 3 3 3 4 3 2 3 3 3 2 1 1 3 4 4 4 4 4 3 3 3 3 4 4 4 4 4 3 3
2 1 2 2 2 2 3 3 3 3 3 3 3 3 3 3 3 3 2 2 2 2 2 1 1 3 3 4 4 4 4 4 4 4 4 4 4 4 4 4 3 4 4 3
2 2 2 3 3 3 3 3 2 2 3 3 3 3 3 3 3 3 2 3 2 2 2 2 4 4 5 3 3 3 3 3 4 4 4 4 3 4 4 3 3 3 3 4
3 2 2 3 3 3 2 2 2 2 3 3 3 3 3 2 2 1 1 1 2 2 2 3 6 5 4 2 2 3 3 2 3 3 3 4 4 3 3 3 3 3 3 3
3 3 2 3 2 2 2 2 2 2 2 2 1 1 1 1 1 2 2 2 2 2 2 2 2 3 3 2 2 2 2 2 2 3 3 3 4 3 3 3 3 3 2 2
3 3 2 2 2 2 2 2 2 2 2 1 1 1 1 1 1 1 1 1 2 2 1 1 1 2 2 2 2 1 2 2 2 2 2 2 3 3 2 2 2 2 2 2
Wind_Direction
270 275 265 261 256 242 252 271 282 292 291 268 235 219 199 187 175 168 169 168 153 146 135 134 127 136 149 145 144 148 161 160 167 174 189 212 220 232 242 250 253 268 282 291
259 259 256 258 255 249 248 260 272 279 283 294 198 194 191 188 181 177 173 167 158 146 142 141 141 150 149 145 147 149 145 142 152 172 199 207 224 227 225 247 285 283 283 292
260 256 255 253 250 253 256 256 268 278 289 190 213 191 197 198 189 183 175 167 161 153 149 148 149 152 156 146 143 147 157 157 171 193 199 221 238 205 208 227 254 274 288 293
259 253 252 263 300 266 266 263 267 275 250 217 213 193 191 192 187 187 182 176 171 169 159 153 146 144 151 150 151 155 157 152 168 184 190 194 239 246 228 235 252 273 297 306
253 251 253 240 232 248 259 258 275 257 211 194 182 183 185 175 176 183 189 186 178 178 173 162 155 152 155 151 140 143 135 139 157 192 183 194 247 257 261 258 266 278 292 301
246 257 260 260 117 280 262 240 188 232 205 190 207 233 193 135 151 161 164 170 172 169 164 164 172 161 164 161 149 150 149 154 149 171 199 238 262 267 273 265 268 277 298 302
244 251 254 28 32 232 247 301 67 253 195 198 212 326 103 140 132 135 147 160 162 167 169 176 177 173 183 174 172 171 159 157 161 177 218 224 231 272 273 277 294 304 307 309
242 247 246 58 183 258 2 38 62 74 123 154 115 87 125 137 135 152 156 167 165 165 171 171 171 180 186 183 177 169 167 169 184 212 228 190 212 251 266 283 269 284 290 299
253 267 62 55 27 33 35 77 78 88 105 155 168 149 142 142 152 168 181 180 175 167 177 183 181 181 193 191 180 176 176 177 189 212 222 212 233 249 255 260 275 298 303 310
250 227 249 42 67 49 39 44 58 84 84 184 191 179 171 182 194 194 193 193 180 179 200 201 202 197 191 178 179 181 180 183 185 198 209 196 254 265 286 298 303 305 311 317
247 251 250 216 306 18 44 43 62 66 14 340 223 232 238 232 227 222 208 200 191 197 208 207 214 205 182 168 177 182 182 186 194 199 189 212 254 307 291 326 327 304 310 314
263 270 271 265 278 323 36 307 316 323 325 327 272 232 235 240 256 245 221 208 205 205 212 211 216 192 176 174 181 186 192 198 213 216 195 232 233 301 25 331 93 267 307 306
279 288 287 278 269 261 250 263 288 293 284 296 278 253 250 253 249 238 219 208 207 208 221 221 217 185 168 180 184 188 199 199 226 218 215 232 244 260 286 309 196 211 231 253
268 264 260 259 262 258 254 252 269 280 284 291 274 269 258 248 234 232 232 222 211 203 202 200 216 191 179 173 178 194 212 179 212 229 238 245 253 262 270 284 294 301 234 207
263 263 261 263 257 250 244 242 255 271 284 289 272 266 262 252 230 229 236 227 201 206 193 189 196 181 177 180 186 204 214 206 217 246 250 254 258 264 276 288 297 304 312 265
270 261 256 248 248 246 240 243 254 266 272 267 272 270 272 264 213 189 209 208 205 207 182 187 196 195 185 192 204 215 210 176 210 241 245 255 269 279 288 295 299 306 309 327
258 258 252 249 250 253 254 260 258 260 269 262 259 257 231 201 187 187 211 199 210 215 204 201 206 197 196 206 218 230 221 191 202 240 252 262 274 283 288 288 290 293 298 336
264 266 263 262 261 255 253 256 252 254 258 260 258 244 226 222 226 216 219 196 202 209 200 202 197 209 211 215 225 237 234 224 229 241 257 263 271 272 274 278 279 281 290 292
271 264 266 267 263 259 260 257 256 259 253 250 249 245 236 231 233 230 209 196 208 216 212 215 191 219 221 212 225 232 236 238 238 245 248 241 246 262 272 277 280 280 285 292
279 253 256 266 264 266 273 271 270 266 263 259 256 249 244 241 236 226 210 214 219 228 203 196 213 228 227 212 222 236 233 234 239 246 249 252 257 269 275 281 280 278 282 291
276 217 232 243 258 271 279 270 260 263 264 261 257 255 251 243 234 223 219 222 201 199 208 188 211 223 221 214 224 236 231 231 236 239 241 248 255 264 272 274 277 279 282 286
334 287 250 255 270 284 288 275 258 253 248 249 252 250 245 240 235 225 219 230 220 185 211 213 220 172 211 230 231 235 235 238 243 247 247 253 259 263 273 282 284 287 286 289
314 296 281 282 287 287 285 274 260 251 251 246 240 242 251 259 260 249 233 216 217 196 223 216 123 136 219 232 237 236 238 242 245 245 244 246 255 262 268 277 286 289 293 293
291 287 285 282 284 279 278 281 275 256 247 244 234 233 244 246 242 240 247 156 179 211 223 141 149 189 228 232 244 246 246 246 252 257 258 255 257 264 271 276 282 285 285 287
284 275 271 267 265 271 280 275 252 234 232 230 228 223 235 242 250 253 253 194 151 198 214 166 172 201 223 247 254 258 258 269 280 283 281 281 275 269 272 278 283 287 287 284
284 273 274 270 274 269 259 247 254 257 251 245 240 247 272 266 227 229 223 203 193 193 221 210 191 211 237 251 257 266 275 265 261 270 284 285 288 293 296 302 301 297 296 294
270 265 257 267 273 267 267 261 263 264 258 251 294 335 315 287 254 227 214 220 211 199 202 212 217 238 260 269 272 272 276 278 282 290 292 298 304 304 310 310 308 312 318 315
Height
1476 1474 1475 1476 1477 1477 1479 1478 1481 1478 1477 1477 1480 1484 1488 1491 1494 1496 1499 1501 1502 1503 1504 1505 1506 1506 1507 1507 1507 1508 1508 1508 1507 1507 1506 1506 1506 1505 1505 1504 1504 1503 1502 1502
1480 1474 1474 1476 1474 1474 1475 1475 1475 1475 1476 1475 1481 1484 1488 1490 1493 1495 1497 1500 1501 1502 1503 1504 1504 1505 1505 1506 1506 1506 1506 1506 1505 1505 1504 1503 1503 1502 1502 1501 1501 1501 1500 1499
1481 1473 1476 1479 1471 1471 1472 1471 1473 1475 1475 1478 1481 1484 1488 1490 1492 1494 1496 1498 1499 1500 1501 1502 1502 1503 1503 1504 1504 1504 1504 1504 1503 1503 1502 1501 1501 1500 1499 1499 1498 1498 1497 1496
1478 1482 1493 1473 1467 1468 1470 1471 1471 1473 1475 1479 1482 1485 1487 1489 1491 1493 1495 1496 1498 1498 1499 1500 1501 1501 1502 1502 1502 1502 1502 1502 1501 1501 1500 1499 1498 1497 1497 1496 1496 1495 1494 1494
1479 1480 1476 1470 1469 1470 1472 1473 1473 1474 1477 1479 1482 1484 1486 1488 1490 1492 1494 1495 1496 1497 1497 1498 1499 1499 1500 1500 1501 1501 1500 1500 1499 1499 1498 1497 1496 1496 1495 1494 1494 1493 1492 1491
1479 1484 1483 1471 1469 1472 1474 1475 1475 1477 1478 1479 1481 1480 1483 1487 1489 1491 1492 1493 1494 1494 1495 1496 1496 1497 1498 1498 1499 1499 1499 1498 1498 1497 1496 1496 1495 1494 1494 1493 1492 1492 1491 1490
1477 1478 1470 1470 1472 1474 1480 1478 1478 1478 1479 1480 1481 1482 1485 1487 1488 1489 1490 1490 1491 1492 1493 1494 1494 1495 1495 1496 1496 1497 1497 1497 1496 1496 1495 1494 1494 1493 1492 1492 1491 1490 1489 1488
1475 1478 1476 1473 1472 1475 1478 1480 1480 1480 1481 1482 1483 1484 1485 1486 1487 1488 1488 1489 1489 1489 1490 1491 1492 1492 1493 1494 1494 1494 1495 1494 1494 1494 1494 1494 1493 1492 1491 1491 1490 1489 1488 1487
1471 1474 1476 1476 1477 1479 1480 1480 1481 1481 1482 1483 1483 1484 1485 1485 1486 1486 1486 1487 1487 1487 1488 1489 1489 1489 1490 1491 1491 1492 1492 1492 1492 1492 1492 1492 1491 1491 1491 1490 1490 1489 1488 1487
1474 1472 1476 1478 1479 1480 1480 1481 1482 1482 1482 1482 1483 1483 1483 1484 1484 1485 1485 1485 1485 1486 1486 1486 1487 1487 1488 1488 1488 1489 1490 1490 1490 1490 1490 1490 1490 1490 1489 1489 1488 1488 1487 1486
1475 1475 1477 1478 1480 1480 1481 1481 1482 1482 1482 1482 1482 1482 1482 1483 1483 1483 1483 1483 1483 1484 1484 1484 1484 1485 1485 1485 1486 1487 1487 1488 1488 1488 1488 1488 1488 1488 1487 1487 1486 1486 1485 1484
1473 1476 1477 1478 1480 1480 1481 1481 1482 1481 1481 1481 1481 1481 1481 1481 1481 1481 1481 1481 1481 1482 1482 1482 1481 1482 1483 1483 1484 1485 1486 1486 1487 1487 1487 1487 1486 1486 1485 1485 1484 1483 1482 1482
1477 1477 1478 1478 1479 1480 1480 1480 1481 1481 1480 1480 1480 1480 1480 1480 1480 1480 1479 1480 1479 1480 1481 1480 1480 1480 1481 1482 1482 1483 1484 1484 1485 1485 1485 1485 1485 1484 1483 1483 1482 1481 1480 1479
1477 1477 1477 1477 1478 1478 1478 1479 1479 1479 1479 1479 1479 1479 1478 1478 1478 1478 1478 1478 1478 1478 1479 1479 1479 1479 1480 1480 1481 1481 1482 1482 1483 1483 1483 1483 1483 1482 1482 1481 1480 1479 1479 1477
1476 1476 1476 1476 1476 1476 1477 1477 1478 1478 1478 1477 1477 1477 1477 1477 1477 1477 1477 1477 1477 1477 1477 1478 1478 1478 1479 1479 1479 1480 1481 1481 1481 1481 1481 1481 1481 1480 1480 1479 1478 1478 1477 1475
1474 1473 1473 1473 1474 1474 1475 1475 1475 1475 1476 1476 1476 1476 1476 1475 1475 1475 1476 1476 1476 1476 1476 1477 1477 1477 1477 1477 1478 1479 1479 1479 1479 1479 1479 1479 1479 1478 1477 1477 1477 1476 1475 1474
1472 1472 1472 1472 1472 1472 1473 1473 1474 1474 1474 1474 1474 1474 1474 1474 1474 1474 1474 1474 1474 1475 1475 1475 1475 1475 1475 1476 1476 1477 1477 1477 1477 1477 1477 1477 1477 1476 1476 1475 1475 1474 1473 1471
1471 1470 1471 1471 1470 1471 1471 1472 1472 1472 1473 1473 1473 1472 1472 1472 1472 1472 1472 1472 1473 1473 1473 1473 1474 1474 1474 1474 1475 1475 1476 1476 1476 1476 1475 1475 1475 1474 1474 1473 1472 1471 1471 1469
1468 1468 1469 1469 1469 1469 1469 1470 1470 1470 1471 1471 1471 1470 1470 1470 1470 1470 1470 1470 1470 1470 1471 1472 1471 1472 1472 1472 1473 1473 1474 1474 1474 1474 1473 1473 1472 1472 1472 1471 1470 1469 1468 1467
1467 1467 1467 1467 1467 1467 1468 1468 1468 1468 1469 1469 1469 1469 1468 1468 1468 1468 1468 1468 1468 1469 1469 1469 1470 1470 1470 1470 1470 1471 1472 1472 1472 1472 1471 1471 1471 1470 1470 1469 1468 1467 1466 1465
1465 1465 1465 1465 1465 1466 1466 1466 1466 1466 1466 1467 1467 1467 1467 1466 1466 1466 1466 1467 1467 1467 1467 1467 1467 1468 1468 1468 1468 1469 1469 1469 1469 1469 1469 1468 1468 1468 1467 1466 1466 1465 1464 1463
1464 1464 1464 1464 1464 1464 1464 1464 1464 1464 1464 1465 1465 1465 1465 1465 1465 1464 1464 1465 1465 1465 1465 1465 1466 1465 1465 1466 1466 1466 1466 1467 1467 1467 1466 1466 1466 1465 1465 1464 1463 1462 1461 1460
1463 1463 1463 1463 1462 1462 1462 1462 1462 1462 1462 1463 1463 1463 1463 1463 1463 1463 1463 1463 1463 1463 1463 1463 1463 1463 1463 1464 1464 1464 1464 1464 1464 1464 1463 1463 1463 1462 1461 1460 1460 1459 1458 1457
1462 1462 1461 1461 1461 1461 1461 1460 1460 1460 1460 1461 1461 1461 1461 1461 1461 1461 1461 1461 1461 1461 1462 1461 1461 1461 1461 1462 1462 1462 1462 1462 1462 1461 1461 1460 1460 1459 1458 1457 1456 1456 1455 1454
1461 1460 1460 1459 1459 1459 1459 1459 1459 1459 1459 1459 1460 1459 1459 1459 1459 1459 1459 1459 1459 1460 1460 1460 1459 1459 1459 1460 1460 1460 1459 1459 1459 1459 1458 1457 1457 1456 1455 1454 1453 1452 1452 1451
1459 1459 1458 1458 1458 1458 1458 1458 1458 1458 1458 1458 1458 1458 1458 1457 1457 1458 1458 1458 1458 1458 1458 1458 1458 1458 1458 1457 1457 1457 1457 1456 1456 1455 1455 1454 1453 1453 1452 1451 1450 1449 1448 1447
1458 1457 1457 1456 1456 1456 1456 1456 1456 1456 1456 1456 1456 1456 1456 1456 1456 1456 1456 1456 1456 1457 1456 1456 1456 1456 1456 1456 1455 1455 1454 1454 1453 1452 1452 1451 1450 1449 1448 1448 1447 1446 1445 1444